sat.trackr.live / text

‹ back to catalog

ONEWEB-0207

NORAD 48242 · 2021-031AJ

PAYLOAD ACTIVE UNKNOWN

§ Identity

Operator
Country
UK
Launch date
2021-04-25
Launch site
VOSTO
Launch vehicle
Mass (kg)
RCS (m²)

Purposes: comms

External: N2YO · Heavens-Above · Gunter

§ Orbital elements

Epoch: 2026-05-24T23:05:39.398784Z

Period
109.55 min
Inclination
87.8949°
Eccentricity
0.0002017
Mean motion
13.14501214 rev/d
Perigee alt
1,204.3 km
Apogee alt
1,207.3 km
Semi-major
7,583.9 km
B*
-1.5158e-4
RAAN
294.3295°
Arg perigee
104.0884°
Mean anomaly
256.0470°
Rev number
24,524

§ Raw data

ONEWEB-02071 48242U 21031AJ  26144.96226156 -.00000043  00000+0 -15158-3 0  99922 48242  87.8949 294.3295 0002017 104.0884 256.0470 13.14501214245249

JSON: /api/v1/satellites/48242 · /tle

For live sub-satellite position, see the globe view (requires WebGL).

§ Visibility from observer

Set your observer location to see the next 7 days of passes ≥ 10°. The values pass through the URL so the page stays shareable.

No JS? Fill the form by hand. The geolocation button needs JavaScript.